Simultaneous Nadir Overpasses (SNOs) Predictions

Prediction of SNOs between GOES-15 and METOP-A Satellite Orbit:

Table of predicted SNOs for the next 14.0 days since TLE Epoch: 10/8/2016
Index Date Time (GOES-15) GOES-15 Lat,Lon METOP-A Lat,Lon Distance(km) Time Diff (sec)
1 10/09/2016 06:39:47 0.30,-135.12 -0.17,-137.29 247.07 80
2 10/10/2016 06:19:08 0.29,-135.08 0.93,-132.29 318.76 80
3 10/11/2016 18:35:19 -0.30,-135.07 0.13,-136.84 202.39 80
4 10/12/2016 18:17:21 -0.29,-135.04 -1.03,-131.85 363.47 80
5 10/14/2016 06:36:21 0.30,-134.95 -0.01,-136.44 170.01 80
6 10/15/2016 06:13:01 0.29,-134.91 1.10,-131.45 395.00 80
7 10/16/2016 18:31:53 -0.30,-134.88 -0.05,-136.00 127.67 80
8 10/17/2016 18:13:53 -0.30,-134.84 -1.15,-131.00 437.29 80
9 10/19/2016 06:32:54 0.30,-134.74 0.11,-135.59 96.96 80
10 10/20/2016 06:09:34 0.29,-134.69 1.22,-130.59 467.14 80
11 10/21/2016 18:28:25 -0.29,-134.65 -0.18,-135.15 57.09 80




NCC Satellite Simultaneous Nadir Overpasses (SNOs) Prediction Service
